Year,Month,Day,Hour,Minute,Value (Times are PST for temperature in C)
2018,08,05,00,00,16.10
2018,08,05,00,01,16.10
2018,08,05,00,02,16.10
2018,08,05,00,03,16.10
2018,08,05,00,04,16.10
2018,08,05,00,05,16.10
2018,08,05,00,06,16.10
2018,08,05,00,07,16.20
2018,08,05,00,08,16.20
2018,08,05,00,09,16.20
2018,08,05,00,10,16.20
2018,08,05,00,11,16.20
2018,08,05,00,12,16.20
2018,08,05,00,13,16.20
2018,08,05,00,14,16.20
2018,08,05,00,15,16.20
2018,08,05,00,16,16.20
2018,08,05,00,17,16.20
2018,08,05,00,18,16.20
2018,08,05,00,19,16.20
2018,08,05,00,20,16.20
2018,08,05,00,21,16.20
2018,08,05,00,22,16.20
2018,08,05,00,23,16.20
2018,08,05,00,24,16.20
2018,08,05,00,25,16.20
2018,08,05,00,26,16.20
2018,08,05,00,27,16.20
2018,08,05,00,28,16.20
2018,08,05,00,29,16.30
2018,08,05,00,30,16.20
2018,08,05,00,31,16.30
2018,08,05,00,32,16.20
2018,08,05,00,33,16.20
2018,08,05,00,34,16.20
2018,08,05,00,35,16.20
2018,08,05,00,36,16.20
2018,08,05,00,37,16.20
2018,08,05,00,38,16.20
2018,08,05,00,39,16.20
2018,08,05,00,40,16.20
2018,08,05,00,41,16.20
2018,08,05,00,42,16.20
2018,08,05,00,43,16.20
2018,08,05,00,44,16.20
2018,08,05,00,45,16.20
2018,08,05,00,46,16.10
2018,08,05,00,47,16.10
2018,08,05,00,48,16.10
2018,08,05,00,49,16.10
2018,08,05,00,50,16.10
2018,08,05,00,51,16.10
2018,08,05,00,52,16.10
2018,08,05,00,53,16.10
2018,08,05,00,54,16.00
2018,08,05,00,55,16.00
2018,08,05,00,56,16.00
2018,08,05,00,57,16.00
2018,08,05,00,58,15.90
2018,08,05,00,59,15.90
2018,08,05,01,00,15.90
2018,08,05,01,01,15.90
2018,08,05,01,02,15.90
2018,08,05,01,03,15.80
2018,08,05,01,04,15.80
2018,08,05,01,05,15.80
2018,08,05,01,06,15.80
2018,08,05,01,07,15.80
2018,08,05,01,08,15.70
2018,08,05,01,09,15.70
2018,08,05,01,10,15.70
2018,08,05,01,11,15.70
2018,08,05,01,12,15.60
2018,08,05,01,13,15.60
2018,08,05,01,14,15.60
2018,08,05,01,15,15.60
2018,08,05,01,16,15.60
2018,08,05,01,17,15.60
2018,08,05,01,18,15.50
2018,08,05,01,19,15.50
2018,08,05,01,20,15.50
2018,08,05,01,21,15.40
2018,08,05,01,22,15.40
2018,08,05,01,23,15.40
2018,08,05,01,24,15.40
2018,08,05,01,25,15.40
2018,08,05,01,26,15.40
2018,08,05,01,27,15.40
2018,08,05,01,28,15.30
2018,08,05,01,29,15.30
2018,08,05,01,30,15.30
2018,08,05,01,31,15.30
2018,08,05,01,32,15.30
2018,08,05,01,33,15.30
2018,08,05,01,34,15.30
2018,08,05,01,35,15.30
2018,08,05,01,36,15.30
2018,08,05,01,37,15.30
2018,08,05,01,38,15.30
2018,08,05,01,39,15.30
2018,08,05,01,40,15.30
2018,08,05,01,41,15.30
2018,08,05,01,42,15.30
2018,08,05,01,43,15.30
2018,08,05,01,44,15.30
2018,08,05,01,45,15.30
2018,08,05,01,46,15.20
2018,08,05,01,47,15.20
2018,08,05,01,48,15.20
2018,08,05,01,49,15.20
2018,08,05,01,50,15.20
2018,08,05,01,51,15.20
2018,08,05,01,52,15.20
2018,08,05,01,53,15.10
2018,08,05,01,54,15.10
2018,08,05,01,55,15.10
2018,08,05,01,56,15.10
2018,08,05,01,57,15.10
2018,08,05,01,58,15.10
2018,08,05,01,59,15.10
2018,08,05,02,00,15.00
2018,08,05,02,01,15.00
2018,08,05,02,02,15.00
2018,08,05,02,03,14.90
2018,08,05,02,04,14.90
2018,08,05,02,05,14.90
2018,08,05,02,06,14.90
2018,08,05,02,07,14.80
2018,08,05,02,08,14.80
2018,08,05,02,09,14.80
2018,08,05,02,10,14.80
2018,08,05,02,11,14.80
2018,08,05,02,12,14.70
2018,08,05,02,13,14.70
2018,08,05,02,14,14.70
2018,08,05,02,15,14.70
2018,08,05,02,16,14.70
2018,08,05,02,17,14.60
2018,08,05,02,18,14.60
2018,08,05,02,19,14.60
2018,08,05,02,20,14.60
2018,08,05,02,21,14.50
2018,08,05,02,22,14.50
2018,08,05,02,23,14.50
2018,08,05,02,24,14.50
2018,08,05,02,25,14.40
2018,08,05,02,26,14.40
2018,08,05,02,27,14.40
2018,08,05,02,28,14.40
2018,08,05,02,29,14.40
2018,08,05,02,30,14.30
2018,08,05,02,31,14.30
2018,08,05,02,32,14.30
2018,08,05,02,33,14.30
2018,08,05,02,34,14.30
2018,08,05,02,35,14.20
2018,08,05,02,36,14.20
2018,08,05,02,37,14.20
2018,08,05,02,38,14.20
2018,08,05,02,39,14.20
2018,08,05,02,40,14.20
2018,08,05,02,41,14.20
2018,08,05,02,42,14.10
2018,08,05,02,43,14.10
2018,08,05,02,44,14.10
2018,08,05,02,45,14.10
2018,08,05,02,46,14.10
2018,08,05,02,47,14.10
2018,08,05,02,48,14.10
2018,08,05,02,49,14.10
2018,08,05,02,50,14.10
2018,08,05,02,51,14.00
2018,08,05,02,52,14.00
2018,08,05,02,53,14.00
2018,08,05,02,54,14.00
2018,08,05,02,55,14.00
2018,08,05,02,56,14.00
2018,08,05,02,57,13.90
2018,08,05,02,58,13.90
2018,08,05,02,59,13.90
2018,08,05,03,00,13.90
2018,08,05,03,01,13.90
2018,08,05,03,02,13.80
2018,08,05,03,03,13.80
2018,08,05,03,04,13.80
2018,08,05,03,05,13.80
2018,08,05,03,06,13.70
2018,08,05,03,07,13.70
2018,08,05,03,08,13.70
2018,08,05,03,09,13.70
2018,08,05,03,10,13.70
2018,08,05,03,11,13.60
2018,08,05,03,12,13.60
2018,08,05,03,13,13.60
2018,08,05,03,14,13.50
2018,08,05,03,15,13.50
2018,08,05,03,16,13.40
2018,08,05,03,17,13.40
2018,08,05,03,18,13.40
2018,08,05,03,19,13.40
2018,08,05,03,20,13.30
2018,08,05,03,21,13.30
2018,08,05,03,22,13.30
2018,08,05,03,23,13.30
2018,08,05,03,24,13.30
2018,08,05,03,25,13.20
2018,08,05,03,26,13.20
2018,08,05,03,27,13.20
2018,08,05,03,28,13.20
2018,08,05,03,29,13.20
2018,08,05,03,30,13.20
2018,08,05,03,31,13.20
2018,08,05,03,32,13.10
2018,08,05,03,33,13.10
2018,08,05,03,34,13.10
2018,08,05,03,35,13.10
2018,08,05,03,36,13.10
2018,08,05,03,37,13.10
2018,08,05,03,38,13.10
2018,08,05,03,39,13.10
2018,08,05,03,40,13.10
2018,08,05,03,41,13.10
2018,08,05,03,42,13.10
2018,08,05,03,43,13.00
2018,08,05,03,44,13.00
2018,08,05,03,45,13.00
2018,08,05,03,46,12.90
2018,08,05,03,47,12.90
2018,08,05,03,48,12.90
2018,08,05,03,49,12.90
2018,08,05,03,50,12.90
2018,08,05,03,51,12.90
2018,08,05,03,52,12.80
2018,08,05,03,53,12.80
2018,08,05,03,54,12.80
2018,08,05,03,55,12.80
2018,08,05,03,56,12.80
2018,08,05,03,57,12.80
2018,08,05,03,58,12.80
2018,08,05,03,59,12.80
2018,08,05,04,00,12.80
2018,08,05,04,01,12.80
2018,08,05,04,02,12.80
2018,08,05,05,04,12.70
2018,08,05,05,05,12.70
2018,08,05,05,06,12.70
2018,08,05,05,07,12.70
2018,08,05,05,08,12.70
2018,08,05,05,09,12.70
2018,08,05,05,10,12.70
2018,08,05,05,11,12.70
2018,08,05,05,12,12.60
2018,08,05,05,13,12.60
2018,08,05,05,14,12.60
2018,08,05,05,15,12.60
2018,08,05,05,16,12.60
2018,08,05,05,17,12.60
2018,08,05,05,18,12.60
2018,08,05,05,19,12.60
2018,08,05,05,20,12.50
2018,08,05,05,21,12.50
2018,08,05,05,22,12.50
2018,08,05,05,23,12.50
2018,08,05,05,24,12.50
2018,08,05,05,25,12.50
2018,08,05,05,26,12.50
2018,08,05,05,27,12.40
2018,08,05,05,28,12.40
2018,08,05,05,29,12.40
2018,08,05,05,30,12.40
2018,08,05,05,31,12.40
2018,08,05,05,32,12.30
2018,08,05,05,33,12.30
2018,08,05,05,34,12.30
2018,08,05,05,35,12.30
2018,08,05,05,36,12.30
2018,08,05,05,37,12.30
2018,08,05,05,38,12.30
2018,08,05,05,39,12.30
2018,08,05,05,40,12.30
2018,08,05,05,41,12.30
2018,08,05,05,42,12.30
2018,08,05,05,43,12.20
2018,08,05,05,44,12.20
2018,08,05,05,45,12.20
2018,08,05,05,46,12.20
2018,08,05,05,47,12.20
2018,08,05,05,48,12.20
2018,08,05,05,49,12.20
2018,08,05,05,50,12.20
2018,08,05,05,51,12.20
2018,08,05,05,52,12.20
2018,08,05,05,53,12.20
2018,08,05,05,54,12.20
2018,08,05,05,55,12.20
2018,08,05,05,56,12.20
2018,08,05,05,57,12.20
2018,08,05,05,58,12.20
2018,08,05,05,59,12.20
2018,08,05,06,00,12.20
2018,08,05,06,01,12.20
2018,08,05,06,02,12.20
2018,08,05,06,03,12.20
2018,08,05,06,04,12.20
2018,08,05,06,05,12.20
2018,08,05,06,06,12.20
2018,08,05,06,07,12.10
2018,08,05,06,08,12.10
2018,08,05,06,09,12.10
2018,08,05,06,10,12.10
2018,08,05,06,11,12.10
2018,08,05,06,12,12.10
2018,08,05,06,13,12.10
2018,08,05,06,14,12.10
2018,08,05,06,15,12.00
2018,08,05,06,16,12.00
2018,08,05,06,17,12.00
2018,08,05,06,18,12.00
2018,08,05,06,19,12.00
2018,08,05,06,20,12.00
2018,08,05,06,21,12.00
2018,08,05,06,22,12.00
2018,08,05,06,23,12.00
2018,08,05,06,24,12.10
2018,08,05,06,25,12.10
2018,08,05,06,26,12.10
2018,08,05,06,27,12.10
2018,08,05,06,28,12.10
2018,08,05,06,29,12.10
2018,08,05,06,30,12.10
2018,08,05,06,31,12.10
2018,08,05,06,32,12.10
2018,08,05,06,33,12.10
2018,08,05,06,34,12.10
2018,08,05,06,35,12.20
2018,08,05,06,36,12.20
2018,08,05,06,37,12.20
2018,08,05,06,38,12.20
2018,08,05,06,39,12.20
2018,08,05,06,40,12.20
2018,08,05,06,41,12.20
2018,08,05,06,42,12.20
2018,08,05,06,43,12.20
2018,08,05,06,44,12.20
2018,08,05,06,45,12.20
2018,08,05,06,46,12.20
2018,08,05,06,47,12.20
2018,08,05,06,48,12.20
2018,08,05,06,49,12.20
2018,08,05,06,50,12.20
2018,08,05,06,51,12.20
2018,08,05,06,52,12.20
2018,08,05,06,53,12.20
2018,08,05,06,54,12.20
2018,08,05,06,55,12.20
2018,08,05,06,56,12.20
2018,08,05,06,57,12.20
2018,08,05,06,58,12.30
2018,08,05,06,59,12.30
2018,08,05,07,00,12.30
2018,08,05,07,01,12.30
2018,08,05,07,02,12.30
2018,08,05,07,03,12.40
2018,08,05,07,04,12.40
2018,08,05,07,05,12.40
2018,08,05,07,06,12.50
2018,08,05,07,07,12.50
2018,08,05,07,08,12.60
2018,08,05,07,09,12.60
2018,08,05,07,10,12.60
2018,08,05,07,11,12.60
2018,08,05,07,12,12.70
2018,08,05,07,13,12.70
2018,08,05,07,14,12.70
2018,08,05,07,15,12.80
2018,08,05,07,16,12.80
2018,08,05,07,17,12.80
2018,08,05,07,18,12.90
2018,08,05,07,19,12.90
2018,08,05,07,20,12.90
2018,08,05,07,21,12.90
2018,08,05,07,22,13.00
2018,08,05,07,23,13.00
2018,08,05,07,24,13.10
2018,08,05,07,25,13.10
2018,08,05,07,26,13.20
2018,08,05,07,27,13.20
2018,08,05,07,28,13.20
2018,08,05,07,29,13.30
2018,08,05,07,30,13.30
2018,08,05,07,31,13.40
2018,08,05,07,32,13.40
2018,08,05,07,33,13.50
2018,08,05,07,34,13.60
2018,08,05,07,35,13.70
2018,08,05,07,36,13.70
2018,08,05,07,37,13.80
2018,08,05,07,38,13.90
2018,08,05,07,39,13.90
2018,08,05,07,40,14.00
2018,08,05,07,41,14.20
2018,08,05,07,42,14.30
2018,08,05,07,43,14.30
2018,08,05,07,44,14.40
2018,08,05,07,45,14.50
2018,08,05,07,46,14.60
2018,08,05,07,47,14.60
2018,08,05,07,48,14.60
2018,08,05,07,49,14.70
2018,08,05,07,50,14.70
2018,08,05,07,51,14.70
2018,08,05,07,52,14.70
2018,08,05,07,53,14.80
2018,08,05,07,54,14.80
2018,08,05,07,55,14.80
2018,08,05,07,56,14.80
2018,08,05,07,57,14.80
2018,08,05,07,58,14.80
2018,08,05,07,59,14.80
2018,08,05,08,00,14.80
2018,08,05,08,01,14.90
2018,08,05,08,02,14.90
2018,08,05,08,03,14.90
2018,08,05,08,04,14.90
2018,08,05,08,05,15.00
2018,08,05,08,06,15.00
2018,08,05,08,07,15.10
2018,08,05,08,08,15.20
2018,08,05,08,09,15.20
2018,08,05,08,10,15.30
2018,08,05,08,11,15.30
2018,08,05,08,12,15.40
2018,08,05,08,13,15.50
2018,08,05,08,14,15.60
2018,08,05,08,15,15.60
2018,08,05,08,16,15.70
2018,08,05,08,17,15.80
2018,08,05,08,18,15.80
2018,08,05,08,19,15.90
2018,08,05,08,20,16.00
2018,08,05,08,21,16.00
2018,08,05,08,22,16.10
2018,08,05,08,23,16.10
2018,08,05,08,24,16.20
2018,08,05,08,25,16.20
2018,08,05,08,26,16.10
2018,08,05,08,27,16.00
2018,08,05,08,28,15.90
2018,08,05,08,29,15.80
2018,08,05,08,30,15.70
2018,08,05,08,31,15.60
2018,08,05,08,32,15.60
2018,08,05,08,33,15.50
2018,08,05,08,34,15.50
2018,08,05,08,35,15.50
2018,08,05,08,36,15.40
2018,08,05,08,37,15.40
2018,08,05,08,38,15.30
2018,08,05,08,39,15.20
2018,08,05,08,40,15.20
2018,08,05,08,41,15.10
2018,08,05,08,42,15.00
2018,08,05,08,43,15.00
2018,08,05,08,44,14.90
2018,08,05,08,45,14.90
2018,08,05,08,46,15.00
2018,08,05,08,47,15.00
2018,08,05,08,48,15.10
2018,08,05,08,49,15.10
2018,08,05,08,50,15.10
2018,08,05,08,51,15.10
2018,08,05,08,52,15.20
2018,08,05,08,53,15.20
2018,08,05,08,54,15.20
2018,08,05,08,55,15.30
2018,08,05,08,56,15.30
2018,08,05,08,57,15.30
2018,08,05,08,58,15.30
2018,08,05,08,59,15.30
2018,08,05,09,00,15.30
2018,08,05,09,01,15.30
2018,08,05,09,02,15.30
2018,08,05,09,03,15.30
2018,08,05,09,04,15.30
2018,08,05,09,05,15.30
2018,08,05,09,06,15.30
2018,08,05,09,07,15.30
2018,08,05,09,08,15.30
2018,08,05,09,09,15.30
2018,08,05,09,10,15.30
2018,08,05,09,11,15.40
2018,08,05,09,12,15.40
2018,08,05,09,13,15.50
2018,08,05,09,14,15.60
2018,08,05,09,15,15.70
2018,08,05,09,16,15.80
2018,08,05,09,17,15.90
2018,08,05,09,18,16.00
2018,08,05,09,19,16.10
2018,08,05,09,20,16.20
2018,08,05,09,21,16.40
2018,08,05,09,22,16.50
2018,08,05,09,23,16.70
2018,08,05,09,24,16.80
2018,08,05,09,25,17.00
2018,08,05,09,26,17.10
2018,08,05,09,27,17.20
2018,08,05,09,28,17.30
2018,08,05,09,29,17.40
2018,08,05,09,30,17.50
2018,08,05,09,31,17.70
2018,08,05,09,32,17.80
2018,08,05,09,33,17.90
2018,08,05,09,34,18.10
2018,08,05,09,35,18.20
2018,08,05,09,36,18.30
2018,08,05,09,37,18.40
2018,08,05,09,38,18.50
2018,08,05,09,39,18.70
2018,08,05,09,40,18.80
2018,08,05,09,41,18.90
2018,08,05,09,42,19.10
2018,08,05,09,43,19.20
2018,08,05,09,44,19.40
2018,08,05,09,45,19.40
2018,08,05,09,46,19.50
2018,08,05,09,47,19.60
2018,08,05,09,48,19.70
2018,08,05,09,49,19.80
2018,08,05,09,50,19.90
2018,08,05,09,51,20.00
2018,08,05,09,52,20.20
2018,08,05,09,53,20.30
2018,08,05,09,54,20.40
2018,08,05,09,55,20.40
2018,08,05,09,56,20.50
2018,08,05,09,57,20.60
2018,08,05,09,58,20.70
2018,08,05,09,59,20.80
2018,08,05,10,00,20.90
2018,08,05,10,01,21.00
2018,08,05,10,02,21.10
2018,08,05,10,03,21.10
2018,08,05,10,04,21.20
2018,08,05,10,05,21.30
2018,08,05,10,06,21.30
2018,08,05,10,07,21.40
2018,08,05,10,08,21.40
2018,08,05,10,09,21.40
2018,08,05,10,10,21.40
2018,08,05,10,11,21.50
2018,08,05,10,12,21.50
2018,08,05,10,13,21.60
2018,08,05,10,14,21.70
2018,08,05,10,15,21.80
2018,08,05,10,16,21.90
2018,08,05,10,17,21.90
2018,08,05,10,18,21.90
2018,08,05,10,19,21.90
2018,08,05,10,20,21.90
2018,08,05,10,21,21.80
2018,08,05,10,22,21.80
2018,08,05,10,23,21.90
2018,08,05,10,24,21.90
2018,08,05,10,25,22.00
2018,08,05,10,26,22.10
2018,08,05,10,27,22.10
2018,08,05,10,28,22.10
2018,08,05,10,29,22.10
2018,08,05,10,30,22.20
2018,08,05,10,31,22.10
2018,08,05,10,32,22.00
2018,08,05,10,33,21.90
2018,08,05,10,34,21.80
2018,08,05,10,35,21.80
2018,08,05,10,36,21.70
2018,08,05,10,37,21.60
2018,08,05,10,38,21.50
2018,08,05,10,39,21.40
2018,08,05,10,40,21.30
2018,08,05,10,41,21.30
2018,08,05,10,42,21.20
2018,08,05,10,43,21.10
2018,08,05,10,44,21.10
2018,08,05,10,45,21.10
2018,08,05,10,46,21.10
2018,08,05,10,47,21.10
2018,08,05,10,48,21.10
2018,08,05,10,49,21.10
2018,08,05,10,50,21.20
2018,08,05,10,51,21.10
2018,08,05,10,52,21.10
2018,08,05,10,53,21.10
2018,08,05,10,54,21.00
2018,08,05,10,55,20.90
2018,08,05,10,56,20.90
2018,08,05,10,57,20.80
2018,08,05,10,58,20.80
2018,08,05,10,59,20.70
2018,08,05,11,00,20.60
2018,08,05,11,01,20.50
2018,08,05,11,02,20.30
2018,08,05,11,03,20.20
2018,08,05,11,04,20.10
2018,08,05,11,05,20.10
2018,08,05,11,06,20.00
2018,08,05,11,07,19.90
2018,08,05,11,08,19.90
2018,08,05,11,09,19.90
2018,08,05,11,10,19.90
2018,08,05,11,11,19.90
2018,08,05,11,12,20.00
2018,08,05,11,13,20.00
2018,08,05,11,14,20.00
2018,08,05,11,15,20.00
2018,08,05,11,16,20.00
2018,08,05,11,17,20.10
2018,08,05,11,18,20.10
2018,08,05,11,19,20.10
2018,08,05,11,20,20.10
2018,08,05,11,21,20.10
2018,08,05,11,22,20.10
2018,08,05,11,23,20.00
2018,08,05,11,24,20.10
2018,08,05,11,25,20.10
2018,08,05,11,26,20.10
2018,08,05,11,27,20.10
2018,08,05,11,28,20.20
2018,08,05,11,29,20.20
2018,08,05,11,30,20.20
2018,08,05,11,31,20.30
2018,08,05,11,32,20.30
2018,08,05,11,33,20.40
2018,08,05,11,34,20.50
2018,08,05,11,35,20.50
2018,08,05,11,36,20.50
2018,08,05,11,37,20.40
2018,08,05,11,38,20.40
2018,08,05,11,39,20.40
2018,08,05,11,40,20.40
2018,08,05,11,41,20.50
2018,08,05,11,42,20.50
2018,08,05,11,43,20.60
2018,08,05,11,44,20.50
2018,08,05,11,45,20.50
2018,08,05,11,46,20.50
2018,08,05,11,47,20.50
2018,08,05,11,48,20.50
2018,08,05,11,49,20.60
2018,08,05,11,50,20.60
2018,08,05,11,51,20.60
2018,08,05,11,52,20.60
2018,08,05,11,53,20.60
2018,08,05,11,54,20.70
2018,08,05,11,55,20.80
2018,08,05,11,56,21.00
2018,08,05,11,57,21.10
2018,08,05,11,58,21.30
2018,08,05,11,59,21.40
2018,08,05,12,00,21.50
2018,08,05,12,01,21.50
2018,08,05,12,02,21.50
2018,08,05,12,03,21.60
2018,08,05,12,04,21.60
2018,08,05,12,05,21.70
2018,08,05,12,06,21.70
2018,08,05,12,07,21.70
2018,08,05,12,08,21.80
2018,08,05,12,09,22.00
2018,08,05,12,10,22.10
2018,08,05,12,11,22.20
2018,08,05,12,12,22.30
2018,08,05,12,13,22.40
2018,08,05,12,14,22.30
2018,08,05,12,15,22.30
2018,08,05,12,16,22.20
2018,08,05,12,17,22.20
2018,08,05,12,18,22.20
2018,08,05,12,19,22.10
2018,08,05,12,20,22.10
2018,08,05,12,21,22.10
2018,08,05,12,22,22.10
2018,08,05,12,23,22.10
2018,08,05,12,24,22.10
2018,08,05,12,25,22.10
2018,08,05,12,26,22.20
2018,08,05,12,27,22.20
2018,08,05,12,28,22.20
2018,08,05,12,29,22.20
2018,08,05,12,30,22.30
2018,08,05,12,31,22.30
2018,08,05,12,32,22.30
2018,08,05,12,33,22.30
2018,08,05,12,34,22.20
2018,08,05,12,35,22.30
2018,08,05,12,36,22.20
2018,08,05,12,37,22.20
2018,08,05,12,38,22.10
2018,08,05,12,39,22.10
2018,08,05,12,40,22.10
2018,08,05,12,41,22.10
2018,08,05,12,42,22.10
2018,08,05,12,43,22.10
2018,08,05,12,44,22.10
2018,08,05,12,45,22.10
2018,08,05,12,46,22.00
2018,08,05,12,47,22.00
2018,08,05,12,48,22.00
2018,08,05,12,49,22.10
2018,08,05,12,50,22.10
2018,08,05,12,51,22.20
2018,08,05,12,52,22.20
2018,08,05,12,53,22.20
2018,08,05,12,54,22.20
2018,08,05,12,55,22.20
2018,08,05,12,56,22.20
2018,08,05,12,57,22.30
2018,08,05,12,58,22.40
2018,08,05,12,59,22.50
2018,08,05,13,00,22.60
2018,08,05,13,01,22.80
2018,08,05,13,02,22.90
2018,08,05,13,03,23.00
2018,08,05,13,04,23.10
2018,08,05,13,05,23.10
2018,08,05,13,06,23.20
2018,08,05,13,07,23.20
2018,08,05,13,08,23.30
2018,08,05,13,09,23.30
2018,08,05,13,10,23.40
2018,08,05,13,11,23.40
2018,08,05,13,12,23.50
2018,08,05,13,13,23.60
2018,08,05,13,14,23.60
2018,08,05,13,15,23.70
2018,08,05,13,16,23.80
2018,08,05,13,17,23.80
2018,08,05,13,18,23.80
2018,08,05,13,19,23.90
2018,08,05,13,20,23.90
2018,08,05,13,21,23.90
2018,08,05,13,22,23.90
2018,08,05,13,23,23.80
2018,08,05,13,24,23.70
2018,08,05,13,25,23.70
2018,08,05,13,26,23.70
2018,08,05,13,27,23.70
2018,08,05,13,28,23.70
2018,08,05,13,29,23.70
2018,08,05,13,30,23.80
2018,08,05,13,31,23.90
2018,08,05,13,32,24.00
2018,08,05,13,33,24.20
2018,08,05,13,34,24.30
2018,08,05,13,35,24.40
2018,08,05,13,36,24.50
2018,08,05,13,37,24.50
2018,08,05,13,38,24.60
2018,08,05,13,39,24.60
2018,08,05,13,40,24.60
2018,08,05,13,41,24.50
2018,08,05,13,42,24.50
2018,08,05,13,43,24.50
2018,08,05,13,44,24.40
2018,08,05,13,45,24.40
2018,08,05,13,46,24.40
2018,08,05,13,47,24.30
2018,08,05,13,48,24.30
2018,08,05,13,49,24.20
2018,08,05,13,50,24.10
2018,08,05,13,51,24.00
2018,08,05,13,52,24.00
2018,08,05,13,53,23.90
2018,08,05,13,54,23.80
2018,08,05,13,55,23.70
2018,08,05,13,56,23.60
2018,08,05,13,57,23.60
2018,08,05,13,58,23.50
2018,08,05,13,59,23.40
2018,08,05,14,00,23.40
2018,08,05,14,01,23.40
2018,08,05,14,02,23.30
2018,08,05,14,03,23.30
2018,08,05,14,04,23.20
2018,08,05,14,05,23.20
2018,08,05,14,06,23.30
2018,08,05,14,07,23.30
2018,08,05,14,08,23.40
2018,08,05,14,09,23.40
2018,08,05,14,10,23.50
2018,08,05,14,11,23.60
2018,08,05,14,12,23.60
2018,08,05,14,13,23.60
2018,08,05,14,14,23.50
2018,08,05,14,15,23.50
2018,08,05,14,16,23.60
2018,08,05,14,17,23.70
2018,08,05,14,18,23.80
2018,08,05,14,19,24.00
2018,08,05,14,20,24.10
2018,08,05,14,21,24.30
2018,08,05,14,22,24.40
2018,08,05,14,23,24.40
2018,08,05,14,24,24.50
2018,08,05,14,25,24.60
2018,08,05,14,26,24.60
2018,08,05,14,27,24.60
2018,08,05,14,28,24.60
2018,08,05,14,29,24.60
2018,08,05,14,30,24.60
2018,08,05,14,31,24.80
2018,08,05,14,32,24.90
2018,08,05,14,33,25.00
2018,08,05,14,34,25.10
2018,08,05,14,35,25.20
2018,08,05,14,36,25.30
2018,08,05,14,37,25.30
2018,08,05,14,38,25.30
2018,08,05,14,39,25.30
2018,08,05,14,40,25.40
2018,08,05,14,41,25.50
2018,08,05,14,42,25.60
2018,08,05,14,43,25.60
2018,08,05,14,44,25.70
2018,08,05,14,45,25.80
2018,08,05,14,46,25.80
2018,08,05,14,47,25.90
2018,08,05,14,48,25.90
2018,08,05,14,49,26.00
2018,08,05,14,50,26.00
2018,08,05,14,51,26.10
2018,08,05,14,52,26.10
2018,08,05,14,53,26.20
2018,08,05,14,54,26.20
2018,08,05,14,55,26.30
2018,08,05,14,56,26.30
2018,08,05,14,57,26.30
2018,08,05,14,58,26.30
2018,08,05,14,59,26.10
2018,08,05,15,00,26.00
2018,08,05,15,01,25.90
2018,08,05,15,02,25.90
2018,08,05,15,03,26.00
2018,08,05,15,04,26.10
2018,08,05,15,05,26.20
2018,08,05,15,06,26.20
2018,08,05,15,07,26.30
2018,08,05,15,08,26.40
2018,08,05,15,09,26.50
2018,08,05,15,10,26.60
2018,08,05,15,11,26.70
2018,08,05,15,12,26.70
2018,08,05,15,13,26.80
2018,08,05,15,14,26.80
2018,08,05,15,15,26.80
2018,08,05,15,16,26.80
2018,08,05,15,17,26.80
2018,08,05,15,18,26.80
2018,08,05,15,19,26.80
2018,08,05,15,20,26.80
2018,08,05,15,21,26.80
2018,08,05,15,22,26.80
2018,08,05,15,23,26.80
2018,08,05,15,24,26.80
2018,08,05,15,25,26.80
2018,08,05,15,26,26.80
2018,08,05,15,27,26.70
2018,08,05,15,28,26.70
2018,08,05,15,29,26.80
2018,08,05,15,30,26.80
2018,08,05,15,31,26.80
2018,08,05,15,32,26.90
2018,08,05,15,33,26.90
2018,08,05,15,34,26.90
2018,08,05,15,35,26.90
2018,08,05,15,36,27.00
2018,08,05,15,37,27.00
2018,08,05,15,38,27.00
2018,08,05,15,39,27.00
2018,08,05,15,40,27.00
2018,08,05,15,41,27.00
2018,08,05,15,42,26.90
2018,08,05,15,43,26.90
2018,08,05,15,44,26.90
2018,08,05,15,45,26.90
2018,08,05,15,46,26.90
2018,08,05,15,47,26.90
2018,08,05,15,48,26.90
2018,08,05,15,49,26.90
2018,08,05,15,50,26.80
2018,08,05,15,51,26.80
2018,08,05,15,52,26.70
2018,08,05,15,53,26.70
2018,08,05,15,54,26.70
2018,08,05,15,55,26.70
2018,08,05,15,56,26.70
2018,08,05,15,57,26.60
2018,08,05,15,58,26.60
2018,08,05,15,59,26.60
2018,08,05,16,00,26.60
2018,08,05,16,01,26.60
2018,08,05,16,02,26.70
2018,08,05,16,03,26.70
2018,08,05,16,04,26.70
2018,08,05,16,05,26.70
2018,08,05,16,06,26.70
2018,08,05,16,07,26.70
2018,08,05,16,08,26.70
2018,08,05,16,09,26.70
2018,08,05,16,10,26.70
2018,08,05,16,11,26.70
2018,08,05,16,12,26.70
2018,08,05,16,13,26.70
2018,08,05,16,14,26.60
2018,08,05,16,15,26.60
2018,08,05,16,16,26.60
2018,08,05,16,17,26.60
2018,08,05,16,18,26.60
2018,08,05,16,19,26.50
2018,08,05,16,20,26.50
2018,08,05,16,21,26.40
2018,08,05,16,22,26.40
2018,08,05,16,23,26.50
2018,08,05,16,24,26.50
2018,08,05,16,25,26.60
2018,08,05,16,26,26.60
2018,08,05,16,27,26.70
2018,08,05,16,28,26.70
2018,08,05,16,29,26.80
2018,08,05,16,30,26.80
2018,08,05,16,31,26.90
2018,08,05,16,32,27.00
2018,08,05,16,33,27.00
2018,08,05,16,34,27.10
2018,08,05,16,35,27.20
2018,08,05,16,36,27.20
2018,08,05,16,37,27.30
2018,08,05,16,38,27.30
2018,08,05,16,39,27.30
2018,08,05,16,40,27.40
2018,08,05,16,41,27.40
2018,08,05,16,42,27.40
2018,08,05,16,43,27.40
2018,08,05,16,44,27.40
2018,08,05,16,45,27.40
2018,08,05,16,46,27.40
2018,08,05,16,47,27.40
2018,08,05,16,48,27.40
2018,08,05,16,49,27.40
2018,08,05,16,50,27.40
2018,08,05,16,51,27.40
2018,08,05,16,52,27.30
2018,08,05,16,53,27.30
2018,08,05,16,54,27.40
2018,08,05,16,55,27.40
2018,08,05,16,56,27.40
2018,08,05,16,57,27.40
2018,08,05,16,58,27.40
2018,08,05,16,59,27.40
2018,08,05,17,00,27.40
2018,08,05,17,01,27.40
2018,08,05,17,02,27.40
2018,08,05,17,03,27.40
2018,08,05,17,04,27.40
2018,08,05,17,05,27.30
2018,08,05,17,06,27.20
2018,08,05,17,07,27.20
2018,08,05,17,08,27.10
2018,08,05,17,09,27.10
2018,08,05,17,10,27.10
2018,08,05,17,11,27.10
2018,08,05,17,12,27.10
2018,08,05,17,13,27.10
2018,08,05,17,14,27.10
2018,08,05,17,15,27.10
2018,08,05,17,16,27.10
2018,08,05,17,17,27.10
2018,08,05,17,18,27.10
2018,08,05,17,19,27.10
2018,08,05,17,20,27.10
2018,08,05,17,21,27.10
2018,08,05,17,22,27.10
2018,08,05,17,23,27.10
2018,08,05,17,24,27.10
2018,08,05,17,25,27.10
2018,08,05,17,26,27.10
2018,08,05,17,27,27.10
2018,08,05,17,28,27.10
2018,08,05,17,29,27.00
2018,08,05,17,30,27.00
2018,08,05,17,31,27.00
2018,08,05,17,32,27.00
2018,08,05,17,33,27.00
2018,08,05,17,34,27.00
2018,08,05,17,35,27.10
2018,08,05,17,36,27.10
2018,08,05,17,37,27.00
2018,08,05,17,38,27.00
2018,08,05,17,39,27.00
2018,08,05,17,40,27.00
2018,08,05,17,41,26.90
2018,08,05,17,42,26.90
2018,08,05,17,43,26.80
2018,08,05,17,44,26.70
2018,08,05,17,45,26.70
2018,08,05,17,46,26.70
2018,08,05,17,47,26.70
2018,08,05,17,48,26.70
2018,08,05,17,49,26.70
2018,08,05,17,50,26.70
2018,08,05,17,51,26.80
2018,08,05,17,52,26.80
2018,08,05,17,53,26.80
2018,08,05,17,54,26.80
2018,08,05,17,55,26.80
2018,08,05,17,56,26.80
2018,08,05,17,57,26.90
2018,08,05,17,58,26.90
2018,08,05,17,59,26.90
2018,08,05,18,00,26.90
2018,08,05,18,01,26.90
2018,08,05,18,02,26.90
2018,08,05,18,03,26.90
2018,08,05,18,04,26.90
2018,08,05,18,05,26.90
2018,08,05,18,06,26.80
2018,08,05,18,07,26.80
2018,08,05,18,08,26.70
2018,08,05,18,09,26.60
2018,08,05,18,10,26.50
2018,08,05,18,11,26.50
2018,08,05,18,12,26.40
2018,08,05,18,13,26.30
2018,08,05,18,14,26.30
2018,08,05,18,15,26.20
2018,08,05,18,16,26.20
2018,08,05,18,17,26.10
2018,08,05,18,18,26.10
2018,08,05,18,19,26.00
2018,08,05,18,20,25.90